Iron Mountain, MI

1:25 AM CDT on May 21, 2018 (GMT -0500)
Ford

Weather History for KIMT - November, 2014

Change the Weather History Date:

Saturday, November 15, 2014

  Actual Average Record
Temperature  
Mean Temperature 12 °F -  
Max Temperature 23 °F 39 °F 64 °F (2001)
Min Temperature 1 °F 24 °F 1 °F (1959)
Degree Days  
Heating Degree Days 53    
Moisture  
Dew Point 6 °F    
Average Humidity 71    
Maximum Humidity 91    
Minimum Humidity 53    
Precipitation  
Precipitation 0.00 in - - ()
Sea Level Pressure  
Sea Level Pressure 30.24 in    
Wind  
Wind Speed 4 mph (West)    
Max Wind Speed 13 mph    
Max Gust Speed 18 mph    
Visibility 10 miles    
Events      
Averages and records for this station are not official NWS values.
T = Trace of Precipitation, MM = Missing Value Source: NWS Daily Summary

Daily Weather History Graph

Daily Weather History Graph

Search for Another Location

Airport or City:

Astronomy

Nov. 15, 2014 Rise Set
Actual Time 6:52 AM CST 4:21 PM CST
Civil Twilight 6:20 AM CST 4:53 PM CST
Nautical Twilight 5:43 AM CST 5:29 PM CST
Astronomical Twilight 5:08 AM CST 6:04 PM CST
Moon No Moon Rise 1:03 PM CST (11/15)
Length of Visible Light 10h 33m
Length of Day
9h 28m
Last Quarter, 40% of the Moon is Illuminated
Nov 15
Last Quarter
Nov 22
New
Nov 29
First Quarter
Dec 6
Full
Dec 14
Last Quarter

Hourly Weather History & Observations

Time (CST) Temp. Windchill Dew Point Humidity Pressure Visibility Wind Dir Wind Speed Gust Speed Precip Events Conditions
12:54 AM 6.1 °F - 3.0 °F 87% 30.29 in 10.0 mi Calm Calm - N/A   Unknown
1:54 AM 5.0 °F -2.1 °F 1.0 °F 84% 30.28 in 10.0 mi NW 3.5 mph - N/A   Unknown
2:54 AM 3.9 °F -5.3 °F -0.0 °F 84% 30.27 in 10.0 mi NNW 4.6 mph - N/A   Unknown
3:54 AM 1.9 °F - -0.9 °F 88% 30.28 in 10.0 mi Calm Calm - N/A   Unknown
4:54 AM 3.0 °F -4.4 °F -0.9 °F 84% 30.28 in 10.0 mi NW 3.5 mph - N/A   Unknown
5:54 AM 5.0 °F -2.1 °F 1.0 °F 84% 30.29 in 10.0 mi WNW 3.5 mph - N/A   Unknown
6:54 AM 6.1 °F -2.8 °F 1.0 °F 80% 30.29 in 10.0 mi WNW 4.6 mph - N/A   Unknown
7:54 AM 6.1 °F -0.9 °F 3.9 °F 91% 30.30 in 10.0 mi West 3.5 mph - N/A   Unknown
8:54 AM 10.0 °F 3.6 °F 6.1 °F 84% 30.30 in 10.0 mi West 3.5 mph - N/A   Unknown
9:54 AM 14.0 °F 3.9 °F 7.0 °F 74% 30.30 in 10.0 mi West 6.9 mph - N/A   Unknown
10:54 AM 18.0 °F 6.9 °F 6.1 °F 60% 30.28 in 10.0 mi West 9.2 mph - N/A   Unknown
11:54 AM 21.0 °F 10.6 °F 7.0 °F 55% 30.27 in 10.0 mi West 9.2 mph 18.4 mph 0.00 in   Unknown
12:54 PM 21.9 °F 13.4 °F 7.0 °F 53% 30.25 in 10.0 mi West 6.9 mph - 0.00 in   Unknown
1:54 PM 21.9 °F 9.8 °F 8.1 °F 55% 30.23 in 10.0 mi WSW 12.7 mph 17.3 mph N/A   Unknown
2:54 PM 23.0 °F - 8.1 °F 53% 30.21 in - North - - N/A   Unknown
3:54 PM 21.9 °F 14.5 °F 9.0 °F 58% 30.20 in 10.0 mi WSW 5.8 mph - N/A   Overcast
4:54 PM 21.0 °F 11.4 °F 8.1 °F 57% 30.20 in 10.0 mi WSW 8.1 mph - N/A   Mostly Cloudy
5:54 PM 19.9 °F 12.1 °F 8.1 °F 60% 30.20 in 10.0 mi SW 5.8 mph - N/A   Mostly Cloudy
6:54 PM 19.0 °F 10.0 °F 7.0 °F 59% 30.20 in 10.0 mi WSW 6.9 mph - N/A   Clear
7:54 PM 19.0 °F 9.0 °F 7.0 °F 59% 30.19 in 10.0 mi SW 8.1 mph - N/A   Clear
8:54 PM 18.0 °F 11.1 °F 8.1 °F 65% 30.18 in 10.0 mi WSW 4.6 mph - N/A   Clear
9:54 PM 17.1 °F 7.6 °F 9.0 °F 71% 30.17 in 10.0 mi SW 6.9 mph - N/A   Clear
10:54 PM 18.0 °F 8.7 °F 10.9 °F 74% 30.16 in 10.0 mi WSW 6.9 mph - N/A   Clear
11:54 PM 17.1 °F 8.7 °F 10.9 °F 77% 30.14 in 10.0 mi Variable 5.8 mph - N/A   Overcast